Location: Grossmotten
(48.5500°N, 15.3833°E)
Time: 20:31:31
(UTC+00:00)

MOS 1-B - Pass Details

Date: 15 November 2019
Orbit: 905 x 914 km, 99.4° (Epoch: 15 December)

Event Time Altitude Azimuth Distance (km) Brightness Sun altitude
Rises 04:22:35 0° 15° (NNE) 3,558 7.5 -17.0°
Reaches altitude 10° 04:25:01 10° 15° (NNE) 2,610 6.8 -16.6°
Maximum altitude 04:30:51 86° 288° (WNW) 919 4.3 -15.7°
Drops below altitude 10° 04:36:38 10° 200° (SSW) 2,587 6.6 -14.7°
Sets 04:39:02 0° 200° (SSW) 3,523 7.3 -14.3°
